Theta_e
322 321 322 322 321 319 320 321 324 327 326 326 325 327 326 324 327 327 327 326 325 324 324 326 329 329 328 330 332 334 333 335 336 338 342 336 332 333 328 322 320 317 313 310 308 309 310 317 322 325 327 327 324 321 318 319 327 330 328 330 327 325 326 321 318 325 325 323 317 309 313 314 315 316 317 316 314 314 315 322 324 323 324 323 325 325 323 324 326 324 323 322 322 324 325 324 324
321 321 322 321 322 319 320 322 328 338 336 323 323 328 325 325 326 329 332 329 327 325 325 327 328 328 328 329 329 331 333 333 330 333 336 333 333 331 325 321 319 316 313 309 309 308 309 315 319 325 327 328 325 320 318 318 325 326 326 327 324 326 326 319 315 320 321 318 314 312 316 317 317 317 319 318 316 316 316 322 324 324 324 324 327 327 324 325 326 325 322 320 321 324 325 325 324
321 321 321 321 322 318 321 321 327 336 331 323 328 330 323 326 332 332 329 327 327 326 327 327 327 328 328 330 330 332 335 332 330 333 334 333 333 328 324 320 318 315 312 309 309 308 310 313 317 324 327 328 325 319 317 319 324 324 325 325 322 326 325 320 318 316 315 312 315 316 316 317 317 319 321 319 317 315 316 321 324 324 324 325 327 327 325 324 324 324 323 323 324 325 325 325 323
321 321 320 321 320 321 328 327 332 333 325 325 328 327 325 331 335 328 324 326 328 327 327 327 329 329 328 333 331 330 333 332 332 333 333 333 332 326 321 319 318 315 312 310 309 308 310 314 317 322 325 327 323 318 317 318 324 326 326 324 320 325 327 325 322 316 313 311 317 315 312 317 318 319 320 317 316 316 316 320 323 323 323 324 325 325 325 324 322 322 324 326 325 325 326 324 323
320 320 319 321 321 323 329 325 330 330 324 328 323 324 331 333 330 323 324 329 326 325 327 328 331 329 329 331 329 329 331 332 333 333 332 333 330 323 320 319 317 315 312 310 309 309 310 313 316 319 323 324 320 318 317 317 323 325 322 321 322 326 329 328 325 317 314 315 319 314 312 319 319 317 317 317 319 319 317 317 321 322 321 321 322 323 324 324 323 322 323 325 324 324 324 322 322
318 319 318 319 320 319 325 322 323 329 330 331 321 324 332 326 324 323 326 327 323 324 327 328 329 328 329 330 330 329 330 333 333 333 332 332 329 322 320 319 317 316 311 310 309 309 309 312 316 319 322 322 319 318 317 318 321 320 317 319 322 325 327 328 327 320 315 320 320 313 314 319 318 317 316 317 318 318 316 316 317 318 318 318 319 322 323 323 322 322 323 324 323 323 323 322 323
317 319 318 320 320 319 329 328 330 335 328 323 321 326 327 319 321 325 325 325 323 324 328 329 326 328 331 331 333 331 332 334 332 332 332 331 328 322 321 318 317 315 311 310 310 309 309 313 316 318 322 322 321 320 317 315 316 319 318 316 318 321 324 327 327 321 316 319 316 312 316 319 317 316 316 316 317 316 316 316 316 316 316 316 318 320 321 321 320 322 323 324 324 324 324 324 324
317 320 318 322 323 324 331 328 331 334 321 314 317 322 322 319 322 323 323 323 324 324 327 328 325 331 334 330 333 333 333 332 331 332 332 331 327 323 321 318 318 315 312 311 310 310 310 312 315 317 321 321 322 322 316 312 314 321 319 312 314 317 321 322 321 319 316 315 314 313 314 314 314 315 315 316 316 316 316 316 317 316 316 317 317 318 319 319 320 321 322 323 323 323 324 324 324
317 320 318 322 325 326 331 326 324 326 323 319 315 317 319 321 323 321 322 322 322 325 327 327 324 328 331 329 332 332 332 332 332 333 332 332 327 324 322 319 319 315 313 311 310 310 310 312 313 318 320 320 322 321 315 311 312 317 314 309 311 313 316 317 315 316 314 313 314 313 310 311 313 314 314 316 316 316 317 317 317 317 317 317 317 318 318 318 319 320 321 321 322 322 323 323 323
317 321 317 322 326 322 323 327 327 323 323 320 315 318 320 321 322 320 322 322 322 326 328 326 322 325 329 330 331 331 332 333 333 334 332 332 327 324 323 319 319 316 314 311 310 310 310 311 312 317 318 318 321 319 315 312 310 310 309 309 309 309 311 312 312 313 311 310 311 310 310 311 312 314 316 316 316 316 317 317 317 317 317 317 318 318 318 318 318 319 319 320 320 321 321 321 320
318 320 317 324 328 321 321 330 336 333 324 319 317 319 322 321 321 320 321 322 324 327 326 325 325 328 328 329 331 329 331 334 334 332 331 332 328 326 323 320 319 317 315 312 311 311 310 311 311 313 314 316 320 321 318 313 310 310 309 309 309 309 309 309 310 310 309 309 309 310 310 311 313 315 316 316 316 316 317 317 317 317 317 318 318 318 318 318 318 318 318 318 319 319 319 319 318
317 321 327 330 327 324 325 329 336 340 331 325 323 320 322 321 321 321 321 323 325 325 325 325 325 326 328 329 330 329 330 333 334 332 330 331 329 328 324 320 319 317 316 313 312 311 310 311 311 311 312 314 318 322 321 314 311 311 311 310 310 309 309 309 309 309 309 309 309 312 311 310 313 314 315 316 316 317 317 317 317 317 318 318 318 318 318 318 318 318 318 318 318 318 318 318 318
317 322 330 326 322 324 324 326 329 332 331 328 322 321 323 321 321 321 321 323 323 324 325 325 323 324 331 331 329 329 330 332 334 332 329 329 329 330 325 321 319 318 316 314 312 311 310 311 310 311 311 312 315 320 320 315 311 311 311 310 310 310 310 310 309 309 309 309 310 312 311 310 312 313 314 316 316 316 316 317 317 317 318 318 318 318 318 318 318 318 317 318 318 318 318 318 318
319 320 326 323 319 325 325 324 324 323 328 326 320 321 323 321 321 321 322 324 323 323 324 324 325 323 328 330 329 328 328 331 334 333 330 329 330 331 326 321 319 318 317 315 313 312 311 310 310 311 311 312 314 318 318 314 311 312 311 311 311 311 310 310 309 309 309 309 309 310 310 310 312 313 314 316 316 316 316 316 317 317 318 318 318 318 318 318 318 318 318 318 318 318 318 318 318
319 318 326 328 321 323 324 321 322 324 329 324 319 321 322 322 321 320 322 325 324 322 323 326 326 322 324 330 330 324 325 331 334 334 331 330 330 330 326 321 319 319 318 316 314 313 311 310 310 311 310 310 313 315 315 313 312 312 312 312 312 312 311 310 310 309 309 309 309 309 309 310 312 312 313 315 316 316 316 316 317 317 317 318 318 318 318 318 318 318 318 318 318 318 318 318 318
319 317 324 329 321 320 320 319 322 325 326 319 317 321 323 322 320 320 321 323 323 321 324 327 326 324 322 324 324 320 324 330 334 335 332 330 329 328 326 322 319 318 318 317 316 314 312 311 310 311 310 310 311 312 313 312 312 313 313 313 313 313 312 311 310 310 310 309 309 308 308 309 310 311 312 313 315 316 316 316 317 317 317 317 317 318 318 318 318 318 318 318 319 319 319 319 319
316 319 326 328 323 320 320 321 321 322 325 316 314 320 323 322 319 319 320 321 322 322 324 328 326 324 323 323 321 321 323 329 334 335 332 329 328 327 327 325 320 318 318 318 317 316 313 312 311 311 310 310 310 311 312 312 313 314 313 313 313 313 313 312 311 310 310 309 309 308 308 308 309 310 310 312 314 315 316 316 316 316 316 317 317 317 318 318 318 318 318 318 318 318 319 319 319
317 324 327 324 325 324 323 324 318 318 322 315 313 318 322 323 319 318 320 320 321 323 324 327 327 324 324 325 323 322 322 329 333 334 332 328 328 327 328 328 324 320 319 318 318 317 315 313 311 311 311 310 310 311 312 313 314 314 314 314 313 313 313 313 312 312 311 310 309 308 308 308 308 309 310 311 312 314 314 315 315 316 316 316 316 317 317 317 317 318 318 318 318 318 318 318 319
319 323 323 326 329 323 319 319 315 315 318 315 314 316 319 322 319 318 320 321 323 327 326 326 328 325 326 326 325 323 322 328 333 334 332 328 327 327 327 328 327 324 320 319 318 317 317 314 312 311 311 311 310 311 312 313 314 316 316 316 316 315 315 314 313 313 312 311 310 309 308 308 308 308 309 310 311 312 313 314 315 315 315 316 316 316 316 316 317 317 318 318 318 318 318 319 319
316 318 322 327 323 317 315 315 314 315 315 314 315 315 317 318 318 319 320 321 324 327 327 325 327 326 327 327 325 324 323 327 333 334 332 329 327 326 326 326 326 326 323 320 318 318 317 316 314 312 311 311 311 312 313 314 315 317 318 318 318 318 318 317 316 315 313 313 312 311 310 309 308 308 308 309 309 311 312 313 313 314 315 315 315 315 316 316 317 317 317 318 318 318 319 319 319
314 316 323 320 313 314 315 313 313 313 313 313 314 315 316 317 318 319 319 323 325 324 323 323 324 324 326 327 325 325 324 327 332 334 333 330 328 326 326 325 325 325 325 323 319 318 318 317 315 313 312 312 311 312 313 315 316 317 318 319 319 319 319 319 319 318 316 315 314 313 312 311 310 309 308 308 309 309 310 311 312 313 314 315 315 316 316 316 317 317 317 318 318 318 318 319 319
313 315 318 314 310 314 314 311 312 312 312 313 313 315 317 317 317 318 319 323 325 321 321 321 321 321 323 325 324 325 324 326 330 332 332 330 328 326 326 326 326 326 327 325 321 318 318 317 317 316 314 313 312 312 312 314 315 316 317 317 318 318 318 318 319 319 318 317 317 316 314 313 313 312 311 310 310 309 309 309 311 312 313 314 315 315 316 316 316 317 317 317 317 317 318 318 318
314 316 314 313 311 311 313 312 312 311 312 313 313 316 316 316 316 317 319 321 321 319 320 320 320 321 322 323 323 324 324 324 327 328 329 328 327 326 325 326 326 327 326 325 323 320 318 317 318 318 317 315 315 315 314 313 314 315 315 316 316 316 316 317 318 318 318 318 318 318 317 317 316 315 314 313 313 312 312 311 311 312 312 312 313 314 314 315 316 316 316 316 317 316 316 316 316
316 320 315 313 312 311 312 312 312 312 312 313 314 315 315 316 317 316 318 320 319 318 320 320 320 320 321 322 322 322 322 322 322 324 325 325 325 324 323 324 324 325 325 324 324 321 319 318 317 318 318 318 318 318 318 316 315 314 314 315 315 315 315 316 317 318 318 318 318 319 319 319 319 318 317 316 315 315 315 314 313 314 313 313 313 313 313 313 314 314 314 314 314 314 314 314 314
317 322 315 312 312 312 313 313 313 312 312 313 314 314 315 316 316 314 317 319 319 319 319 319 320 320 321 322 322 322 322 321 321 324 326 326 326 326 324 324 324 325 325 325 324 322 320 318 317 318 318 318 319 319 320 319 319 318 317 316 316 316 316 317 318 318 319 319 320 320 320 321 321 321 320 319 318 318 317 317 316 316 316 315 314 314 314 314 313 313 313 312 312 311 311 311 311
315 316 313 312 313 313 313 313 313 312 312 313 314 314 314 314 315 315 317 318 318 319 318 318 319 320 321 322 322 322 322 322 322 323 325 326 327 328 326 325 325 325 324 325 325 323 321 320 319 317 317 318 318 319 320 320 321 321 320 320 319 319 318 319 319 320 320 320 321 321 321 322 322 322 322 321 321 320 320 320 320 320 319 318 318 317 316 316 315 314 315 315 314 314 314 315 315
312 312 312 313 314 313 313 313 313 313 313 313 314 315 313 313 314 317 318 317 318 318 318 318 319 320 319 321 322 322 322 321 321 322 324 327 328 328 326 325 325 324 324 325 326 324 323 322 320 318 318 317 318 319 319 320 321 321 322 322 322 321 321 321 321 321 322 322 322 322 322 323 323 323 323 322 322 322 321 321 322 322 322 322 321 321 320 320 319 319 319 320 321 321 322 322 323
312 312 313 313 313 314 313 313 313 313 313 313 314 313 312 312 315 317 317 317 318 318 318 318 319 320 320 319 321 321 321 321 322 323 324 325 324 324 325 324 323 323 324 325 325 326 325 323 321 320 319 318 319 320 320 321 322 322 323 323 323 323 322 322 322 322 322 322 322 323 323 323 324 324 324 324 323 323 322 322 323 323 324 324 323 323 323 323 323 324 324 324 324 325 325 325 325
313 314 317 316 315 316 313 312 313 313 313 313 313 314 315 314 315 317 316 316 317 317 317 318 318 320 320 320 321 321 321 321 322 322 322 321 321 322 322 321 321 321 322 324 325 326 326 324 322 321 321 320 319 320 321 322 323 324 324 324 324 324 324 324 323 323 322 322 322 322 323 323 324 324 324 324 324 324 324 324 324 324 325 324 324 325 324 325 325 325 325 325 325 325 324 323 323
315 314 318 321 319 318 313 310 312 313 313 313 313 317 321 319 315 315 316 316 316 316 316 317 318 319 320 321 321 321 321 322 321 320 320 320 320 321 321 321 320 320 320 323 324 324 325 324 323 322 321 321 321 321 321 322 323 324 324 325 325 325 325 325 324 323 323 323 322 322 322 323 323 324 324 324 325 325 324 324 325 325 325 325 325 325 325 325 325 326 326 326 325 325 324 322 322
316 315 318 321 321 321 316 311 312 313 312 312 313 317 322 320 315 314 315 315 315 316 316 316 317 318 319 321 321 321 321 321 320 320 320 320 320 320 320 321 321 321 321 321 321 322 323 324 323 322 322 321 321 321 321 321 322 323 323 323 324 325 325 324 324 324 323 323 323 323 323 323 323 323 324 324 324 324 324 324 325 326 326 325 325 325 325 325 325 326 326 325 325 325 324 324 323
316 320 322 320 319 322 319 311 311 314 313 311 313 316 319 317 314 313 314 315 314 315 316 316 317 317 318 319 320 320 320 320 320 320 321 320 320 320 319 320 321 321 321 320 320 321 322 322 322 322 322 321 321 321 321 321 321 322 322 322 322 323 324 324 323 323 323 323 323 323 323 323 322 322 323 323 323 323 323 324 324 325 326 326 326 326 326 326 326 326 325 325 325 324 324 324 324
317 321 323 320 319 321 320 314 310 312 312 312 312 315 319 316 311 312 313 313 313 315 316 316 316 317 317 318 319 319 320 320 321 320 320 320 319 319 318 318 319 320 320 320 320 320 321 321 321 321 321 321 321 321 321 321 322 322 322 322 322 322 322 322 322 322 322 322 322 323 323 322 321 321 321 321 321 321 322 322 323 324 325 326 326 325 325 326 326 325 325 324 323 323 324 324 324
318 317 317 319 319 318 318 317 311 309 312 314 313 313 318 318 311 311 312 311 312 314 316 316 316 316 316 317 318 318 319 319 319 319 318 318 318 318 318 317 318 319 320 321 321 320 320 320 320 320 320 321 321 321 321 321 322 322 322 322 322 321 321 320 320 320 320 320 321 321 321 321 319 319 319 319 318 318 319 320 321 323 323 324 324 325 324 325 325 324 323 323 322 323 323 324 324
321 317 315 316 316 316 316 316 312 310 312 314 315 314 316 319 313 311 312 311 312 312 314 316 316 316 316 316 316 317 318 318 317 317 317 317 317 317 318 317 317 318 319 320 321 321 320 320 320 319 320 320 321 321 321 321 322 322 322 322 321 320 320 320 320 319 318 319 319 319 319 319 318 318 318 318 318 318 318 319 321 322 322 322 322 322 322 322 322 322 322 321 321 321 321 322 323
322 317 315 316 316 316 314 314 311 310 313 313 314 315 315 318 314 311 311 311 311 312 313 315 315 316 316 316 316 316 316 316 315 315 316 317 317 317 317 317 317 317 318 319 320 321 321 320 320 320 320 320 320 321 321 321 321 321 321 321 320 319 319 319 318 318 318 317 317 317 317 317 317 317 318 320 319 319 320 321 322 323 322 322 321 321 321 321 321 321 322 321 321 319 321 323 321
317 314 314 315 315 315 313 313 311 309 312 314 314 313 313 315 314 311 310 310 310 310 311 313 314 315 316 316 316 315 315 315 315 315 316 316 317 317 317 317 317 317 317 318 318 319 320 320 319 318 318 319 320 320 320 320 319 319 319 319 318 318 318 318 317 317 317 316 317 317 317 317 317 318 319 321 321 322 322 323 324 324 323 322 322 321 321 321 321 321 321 322 321 319 320 323 321
314 313 314 313 314 315 313 312 311 309 312 316 314 312 312 313 314 311 308 309 310 310 310 312 313 314 314 315 315 315 315 315 315 315 315 316 316 316 317 317 317 317 316 316 316 316 317 318 317 316 317 319 319 319 319 319 318 318 318 317 317 318 318 317 316 316 316 316 317 318 318 318 317 318 320 322 323 323 324 324 324 324 322 321 321 321 321 320 321 322 321 321 321 320 320 322 320
314 314 314 314 314 316 315 312 312 310 312 317 315 312 313 313 313 311 308 309 311 311 312 312 314 314 313 314 315 315 315 315 315 315 315 315 315 315 315 316 316 316 315 315 314 314 315 316 315 315 315 317 318 318 318 317 317 317 317 318 318 319 318 317 317 317 318 318 318 318 318 318 318 319 321 322 323 324 324 324 324 324 322 321 321 322 322 321 321 321 321 320 320 321 321 321 320
314 314 314 315 314 315 316 314 311 311 311 313 313 312 312 311 311 312 309 309 311 311 312 312 313 313 314 314 314 314 315 315 315 315 315 315 315 314 314 314 314 314 314 314 314 314 314 314 314 314 314 315 316 317 317 317 318 319 321 321 321 322 320 319 320 319 319 318 318 318 317 317 318 318 320 322 322 322 322 323 324 324 323 322 322 322 323 323 322 321 320 320 321 321 321 320 320
314 314 315 316 315 314 315 315 313 314 312 310 311 313 315 314 313 313 311 309 308 310 311 311 313 313 314 314 313 314 314 315 315 315 315 315 314 314 314 314 314 313 313 313 313 313 313 313 313 313 313 314 315 315 316 318 319 321 324 325 325 325 323 320 319 318 317 316 316 316 316 317 317 318 320 322 322 321 321 321 322 322 322 323 323 323 323 323 322 322 322 323 321 320 320 320 319
316 316 315 315 317 313 313 316 315 317 318 312 311 315 321 324 319 315 314 312 311 309 307 309 313 313 313 313 314 315 314 315 315 315 315 315 315 314 314 314 314 313 313 313 313 313 313 313 313 313 313 313 313 314 315 317 319 321 323 324 325 323 320 317 315 314 314 314 314 314 315 316 316 317 319 320 322 322 322 322 321 321 321 323 323 323 323 323 323 322 322 323 323 322 321 320 319
316 317 315 313 315 313 312 315 314 318 319 313 310 315 321 323 320 317 315 314 314 311 307 307 311 313 313 314 315 316 315 315 315 316 315 315 315 315 315 315 314 314 314 313 313 313 313 313 313 313 313 312 313 313 314 316 317 318 320 321 321 320 317 315 313 312 314 314 314 315 315 315 316 316 318 319 319 320 322 322 323 322 322 322 322 322 323 323 323 322 321 322 324 323 321 321 321
318 317 315 313 312 313 315 314 315 318 318 313 311 314 316 315 315 318 315 314 316 314 311 308 308 312 314 314 316 316 316 316 315 316 315 315 315 315 315 316 315 315 315 314 314 313 313 313 313 313 313 313 313 313 314 314 316 317 318 319 319 318 316 314 313 314 315 315 316 315 315 315 315 316 317 318 319 319 320 321 322 322 322 322 322 323 322 322 322 322 323 324 323 322 321 321 321
319 316 316 315 313 315 316 315 315 315 313 314 314 312 314 316 318 318 313 313 315 315 317 312 308 312 314 315 317 316 316 317 316 316 316 316 316 315 316 315 316 316 315 315 314 314 314 313 313 313 312 313 313 313 314 314 315 316 318 319 319 318 317 316 316 316 316 316 316 316 316 316 316 316 316 317 318 319 319 320 321 321 321 322 322 323 322 323 325 323 323 324 322 322 322 320 319
313 313 316 317 318 319 316 316 316 312 311 315 316 313 313 318 322 318 313 313 314 317 319 313 308 311 314 314 315 315 315 315 315 315 315 315 315 315 315 315 315 316 315 315 314 314 314 314 313 313 313 313 313 313 314 314 315 316 317 318 318 318 318 318 317 317 317 317 316 316 316 316 316 316 316 317 318 318 319 320 320 320 320 321 323 323 320 321 323 321 321 323 323 323 322 319 318
309 313 317 317 322 321 317 320 317 312 313 315 315 315 313 316 321 318 314 315 316 316 318 313 309 312 314 314 314 314 314 314 313 313 313 313 314 314 314 314 314 315 315 315 315 314 314 314 314 313 313 313 313 313 314 315 315 315 316 316 316 317 317 318 318 317 317 317 316 315 316 317 317 317 317 318 318 318 319 320 320 320 320 321 322 322 320 319 323 325 324 324 324 323 320 317 317
310 318 318 316 320 318 316 319 315 312 318 315 313 314 312 314 319 316 313 315 314 314 317 317 312 312 315 314 313 313 313 313 313 313 313 313 314 314 314 315 314 314 315 315 315 315 314 314 314 314 314 313 313 313 314 314 315 315 315 315 316 316 317 317 317 316 316 316 316 317 318 319 319 319 319 318 318 319 319 320 320 320 321 321 320 321 324 324 325 327 325 323 323 321 318 318 319
313 317 316 315 318 316 316 318 315 316 317 312 311 312 311 313 315 314 314 314 313 310 311 314 311 311 314 314 313 313 312 313 313 313 314 313 314 314 314 315 314 314 314 314 315 315 314 314 314 314 314 313 313 313 313 314 314 314 314 315 315 316 317 317 317 317 317 317 318 319 320 321 320 320 320 319 319 320 320 321 321 321 322 320 319 322 325 321 320 323 323 324 325 320 318 321 322
313 313 314 316 317 317 317 316 315 318 317 311 310 311 312 315 315 315 316 313 312 309 308 311 311 310 313 312 312 313 312 313 313 313 313 313 314 314 314 314 315 314 314 314 314 315 315 314 314 314 314 314 313 313 313 313 314 314 314 315 315 316 317 317 317 317 318 318 320 321 322 322 322 321 321 320 321 322 322 321 321 322 321 320 320 322 321 317 319 324 324 324 323 319 319 323 322
312 314 316 317 317 319 320 318 318 319 317 311 308 312 318 320 317 314 311 309 310 309 309 311 310 311 312 312 312 313 313 313 313 313 314 313 314 313 314 314 314 314 314 313 314 314 314 314 314 314 314 313 314 313 313 313 313 314 315 315 315 316 317 318 318 319 319 321 322 323 324 323 323 322 322 322 322 323 323 322 322 321 320 319 319 320 320 319 320 322 321 320 319 319 320 321 319
311 315 316 314 318 323 320 317 319 319 317 313 310 315 320 319 316 312 307 307 308 307 309 310 310 312 312 312 313 313 314 314 314 314 313 313 313 313 314 314 314 314 314 314 314 313 313 313 313 314 313 314 313 313 313 313 314 314 315 315 316 317 318 319 320 320 320 322 323 324 324 324 324 323 324 324 324 323 323 322 322 321 319 318 317 319 321 321 318 316 316 316 318 318 317 317 316
312 312 313 312 316 323 320 313 311 312 315 315 312 315 318 316 315 313 311 312 311 309 308 308 310 312 311 312 314 313 314 314 313 313 312 313 313 313 314 314 313 314 314 314 314 314 314 313 313 314 313 313 313 313 313 313 314 314 315 315 316 317 318 319 320 320 321 322 324 324 325 324 324 324 325 325 324 323 323 322 322 321 319 318 318 318 319 318 316 315 314 315 316 316 314 313 313
312 312 312 312 313 318 320 316 312 311 314 318 315 313 315 316 316 317 315 313 315 314 310 307 308 310 311 312 313 313 313 312 312 313 312 313 313 313 314 313 313 313 312 313 313 313 314 314 314 314 314 314 313 313 313 313 314 314 315 315 316 317 318 319 320 321 323 324 324 325 325 325 325 325 325 325 324 323 322 321 322 321 319 317 317 318 317 315 315 314 313 313 314 313 313 313 312
311 312 311 313 315 315 315 316 316 313 313 318 319 314 312 314 316 318 315 313 316 314 313 312 310 310 311 311 312 312 311 312 312 312 312 313 313 313 313 312 312 312 312 312 312 312 313 313 313 314 314 315 314 314 313 313 314 314 315 316 317 318 319 320 322 323 324 324 325 325 325 325 325 325 324 324 323 323 322 321 321 320 318 316 316 317 316 314 313 313 312 312 312 312 312 312 312
308 310 309 312 316 315 314 314 314 316 314 317 321 318 315 314 315 318 315 315 316 314 316 316 310 309 312 311 311 312 311 312 312 312 312 313 313 313 312 312 312 312 313 312 312 312 312 312 312 312 313 314 315 315 314 314 314 315 316 317 318 319 320 320 321 322 322 323 323 324 324 324 324 324 324 324 323 322 321 321 320 318 316 316 316 315 314 313 312 312 312 312 312 312 312 312 312
309 311 310 310 311 313 316 313 312 317 318 319 318 316 320 319 315 314 314 314 314 314 317 315 309 311 313 311 311 311 311 311 312 312 312 312 313 312 311 312 313 313 313 313 312 312 312 311 311 311 312 312 314 315 315 315 315 315 316 316 317 317 317 317 317 317 318 320 322 323 323 324 324 323 323 322 322 321 320 319 317 316 315 315 315 314 313 313 312 312 312 312 312 312 312 312 312
312 312 311 311 312 314 315 312 312 313 316 320 316 312 320 323 314 310 313 314 313 312 312 310 309 312 312 310 310 311 311 311 311 311 312 312 312 312 311 312 313 313 313 313 313 313 312 312 311 311 311 311 312 313 314 315 315 314 314 314 314 314 314 314 314 315 317 320 322 323 323 323 322 322 322 321 320 319 318 316 315 315 315 314 314 313 313 313 313 313 313 312 313 312 312 312 311
Wind_Speed
7 5 5 5 7 5 5 6 2 2 4 2 2 0 2 3 1 2 3 2 3 3 6 9 15 17 7 3 6 6 6 7 6 3 3 8 17 17 13 12 10 7 5 5 8 8 9 14 15 14 12 9 7 6 7 13 14 13 12 10 11 12 11 10 11 13 11 11 12 13 12 12 12 12 13 13 14 14 15 15 15 16 16 16 17 17 18 20 18 15 16 16 18 18 18 19 19
8 6 5 5 7 5 3 5 2 2 5 2 2 2 2 3 1 5 6 4 3 6 11 17 18 12 7 8 9 7 5 5 5 6 9 17 20 16 14 12 9 6 5 6 8 8 9 13 15 14 13 10 8 6 8 12 12 12 12 11 12 12 11 11 10 11 11 11 12 12 11 11 12 12 13 13 14 14 15 15 15 16 16 17 17 17 17 18 18 16 15 16 18 18 18 18 18
7 6 4 4 6 4 1 4 2 1 4 1 4 3 1 1 5 6 6 5 10 17 17 18 13 8 9 9 6 3 4 5 7 11 17 22 20 18 16 13 10 6 5 6 8 8 9 13 15 14 14 11 9 8 8 11 10 11 12 11 12 11 11 11 11 10 11 11 11 12 12 12 12 13 13 14 15 15 16 15 16 17 16 17 17 16 17 17 17 16 16 17 18 18 17 17 18
7 5 4 3 4 3 3 4 2 4 1 2 3 4 3 4 7 5 5 12 20 17 12 11 7 5 4 4 4 2 4 6 9 15 20 21 18 19 17 14 11 7 6 7 8 8 10 13 14 14 13 12 10 9 9 11 11 11 11 12 12 12 12 10 9 9 9 9 10 12 12 12 13 13 14 15 16 16 16 16 16 17 16 16 16 16 16 16 16 16 17 17 17 18 16 17 17
7 5 3 3 2 1 3 3 2 4 1 3 0 5 5 5 6 5 10 18 15 7 5 8 5 5 4 4 4 1 5 8 13 17 20 21 18 18 17 14 11 8 7 7 9 9 10 12 12 13 13 11 11 10 9 11 12 11 11 14 14 13 12 10 8 7 9 9 10 12 12 12 13 14 15 15 16 16 17 17 16 16 16 16 15 16 16 16 16 16 17 17 17 18 16 16 17
5 3 3 2 1 2 2 1 1 1 4 5 2 5 5 6 8 11 14 14 5 0 5 6 5 8 6 4 2 3 7 7 13 20 21 22 19 17 16 14 11 8 7 8 9 9 10 11 12 13 12 11 10 10 9 11 11 10 12 13 13 13 12 11 9 8 10 10 11 12 11 12 13 14 15 16 16 16 16 16 16 15 15 15 15 15 16 16 16 16 17 17 17 17 16 16 16
4 2 2 1 3 3 3 3 3 3 4 5 3 4 5 8 12 14 11 7 3 3 5 6 9 10 5 4 4 6 6 5 14 21 22 22 20 18 16 14 11 9 8 9 9 9 10 12 12 11 10 10 10 9 9 10 11 10 11 11 11 13 12 11 10 9 10 10 11 11 11 12 13 14 15 15 16 16 16 15 15 15 15 15 14 15 16 16 16 16 16 16 16 16 15 15 15
3 1 1 2 2 4 3 2 3 3 3 3 3 5 7 14 18 14 8 6 4 5 6 10 10 5 3 5 4 5 5 6 14 20 22 22 20 18 16 14 11 10 9 9 9 9 11 12 12 10 10 10 10 9 8 9 10 10 10 10 10 12 11 11 10 9 10 10 10 11 12 13 12 13 14 15 15 15 15 15 14 15 15 14 14 14 15 15 15 15 15 15 15 15 14 14 13
2 1 1 3 2 2 2 1 2 3 3 4 4 5 8 17 19 12 8 4 5 7 10 14 6 1 6 6 4 7 7 10 16 20 22 21 20 18 17 14 11 9 9 9 9 10 10 10 10 10 9 10 10 9 8 9 10 10 10 11 11 10 10 11 10 8 9 10 10 11 12 12 12 13 14 14 14 14 14 14 14 14 14 14 14 14 14 15 15 15 15 15 14 14 13 12 12
2 1 2 2 2 1 3 2 2 3 4 5 5 5 10 18 16 9 7 4 7 11 14 11 2 5 11 7 6 9 10 14 19 22 21 20 19 17 17 14 10 8 7 9 9 10 9 9 9 9 10 10 11 9 9 9 9 10 11 11 11 10 10 10 10 8 9 10 10 11 11 11 12 13 13 13 13 13 13 13 13 13 13 13 14 14 14 14 14 14 14 14 14 13 13 12 11
2 2 3 3 3 1 3 3 3 4 5 5 4 5 13 19 14 7 5 4 8 12 14 8 3 11 11 6 7 10 13 16 20 21 20 20 18 17 17 14 12 8 6 8 9 10 9 9 9 9 9 9 10 11 9 9 9 10 11 11 11 10 10 10 10 9 9 10 9 10 11 11 12 12 12 13 13 12 12 12 12 12 12 13 13 13 13 13 13 13 14 14 13 13 12 12 12
0 2 3 3 2 3 3 3 4 5 5 4 2 7 14 18 11 6 6 6 9 9 12 9 6 12 7 3 8 11 15 18 20 19 19 20 17 17 16 14 12 9 7 7 8 10 10 10 9 9 9 8 10 11 10 10 9 10 10 10 10 10 10 10 10 9 10 10 9 10 11 11 11 12 12 12 12 11 12 11 11 11 11 11 12 12 12 12 12 12 12 12 12 12 11 11 11
2 2 4 2 3 3 3 2 4 5 5 3 3 8 13 16 9 8 9 7 10 7 9 9 9 11 5 2 8 14 17 19 20 18 19 19 17 18 17 16 13 11 10 8 9 10 11 10 10 10 9 9 10 11 11 11 10 10 10 10 10 9 9 9 9 9 9 9 9 9 10 11 11 11 11 12 11 11 11 10 10 10 10 10 10 11 11 11 11 11 11 11 11 11 10 10 11
2 3 4 2 1 2 4 1 3 2 4 5 4 10 14 12 7 10 10 7 10 8 8 10 10 10 5 4 8 18 21 19 22 19 20 19 18 19 18 17 14 13 11 9 9 9 11 11 11 11 10 10 10 10 11 11 10 10 10 9 9 9 9 9 9 9 8 9 9 9 10 11 11 11 11 11 11 10 10 9 9 8 8 8 9 9 9 9 9 9 9 9 10 10 9 10 10
3 3 4 3 2 1 3 1 1 2 4 4 5 13 14 10 6 9 11 9 9 9 8 10 12 7 5 7 8 21 25 20 23 20 20 20 19 20 19 18 15 14 13 11 11 10 11 11 11 11 11 12 11 11 11 12 11 10 10 9 9 8 9 9 9 9 8 9 9 9 10 10 11 10 10 11 10 10 9 9 8 7 7 7 7 7 8 8 8 8 8 8 8 9 9 9 9
4 4 4 2 1 1 3 1 2 3 4 4 6 13 12 9 9 7 11 11 8 10 10 10 16 8 4 10 5 17 26 22 24 21 21 22 21 22 20 19 17 16 15 13 12 11 11 11 12 12 12 12 11 12 12 13 12 11 10 9 9 8 9 9 8 8 8 8 9 9 9 9 10 9 9 9 10 9 9 8 7 6 5 6 6 6 6 6 6 6 6 7 7 8 8 8 9
3 3 3 1 3 2 4 3 3 2 5 4 7 15 11 6 10 7 9 12 8 11 13 10 18 15 6 9 5 14 27 23 24 24 23 24 24 24 22 21 21 20 18 16 15 13 12 12 13 13 13 13 12 13 12 13 12 11 11 9 9 8 8 9 9 8 8 8 8 8 9 9 9 8 8 8 8 8 8 7 7 6 5 4 4 4 5 5 5 5 6 6 7 7 8 8 8
2 2 3 2 3 3 5 5 6 3 2 3 6 14 12 8 12 10 7 10 9 11 16 11 17 20 12 10 6 13 26 26 26 27 26 27 27 27 26 25 24 23 21 19 17 15 14 13 14 14 14 14 14 13 13 13 12 12 10 9 9 7 8 8 8 8 7 7 7 8 8 8 8 8 7 7 7 7 7 6 5 5 4 3 3 3 3 3 4 4 5 6 6 7 7 8 8
2 3 2 3 4 3 3 4 5 2 3 2 4 9 11 10 14 14 7 7 9 9 13 12 15 20 16 13 9 13 26 28 28 29 29 30 30 29 29 28 26 25 23 21 19 17 15 14 14 14 14 14 14 14 14 13 12 12 10 9 9 7 7 7 7 7 7 7 7 7 7 8 8 7 7 7 6 6 5 5 4 4 3 2 2 1 1 2 2 3 4 5 6 6 7 7 7
2 3 1 3 3 4 4 3 4 5 6 4 4 8 11 11 13 15 8 6 8 9 13 14 16 21 19 16 11 14 27 29 29 31 30 31 31 30 30 29 27 26 24 22 20 18 16 15 14 15 15 15 15 15 14 14 13 12 11 10 9 8 7 6 7 7 7 7 6 6 6 7 7 7 7 6 6 5 5 4 4 4 3 2 2 1 0 1 1 2 3 4 5 6 7 8 8
2 3 3 1 2 3 4 7 6 8 8 7 4 5 9 12 13 14 11 6 4 14 23 22 21 23 21 19 14 17 27 30 31 32 31 31 32 31 30 29 26 25 23 22 21 19 18 16 15 15 15 15 15 15 14 14 13 12 11 10 9 8 7 7 6 6 6 6 6 6 6 6 6 6 6 6 6 5 5 4 4 3 3 3 2 1 1 1 1 2 3 4 4 5 6 7 8
1 1 4 1 2 2 5 9 7 9 10 9 4 4 8 12 13 16 16 9 9 19 28 27 24 22 21 21 18 20 27 31 32 33 33 32 32 32 30 29 27 25 24 23 22 20 19 18 16 16 15 15 15 15 14 14 14 13 12 11 10 9 8 7 7 6 5 5 5 5 5 5 5 5 5 6 6 5 5 4 4 3 3 3 2 2 2 2 2 3 3 4 5 5 6 6 7
2 2 4 4 1 4 8 11 8 9 8 8 6 6 9 12 10 14 20 18 14 16 21 24 24 21 20 21 20 22 26 30 32 33 33 32 32 32 31 30 28 26 25 23 22 21 20 19 18 18 17 16 16 15 15 15 14 13 13 12 11 10 9 9 8 7 6 5 5 5 5 4 4 4 5 5 5 5 5 4 4 3 3 3 3 3 3 4 4 4 4 5 5 6 7 7 7
3 2 5 5 5 7 10 12 8 6 6 9 9 7 9 14 9 8 21 27 17 9 11 17 22 20 19 21 21 22 24 26 29 30 31 30 29 29 29 28 27 26 25 24 22 22 22 21 20 20 18 17 16 16 16 15 15 14 13 13 12 11 10 9 8 8 7 6 5 5 5 5 4 4 5 5 5 5 5 4 4 4 4 4 4 4 5 5 5 6 6 6 7 7 8 8 9
1 3 5 4 6 9 11 10 7 5 7 8 9 8 9 14 10 6 20 27 19 12 8 10 18 21 21 23 23 22 23 25 27 29 30 30 29 28 28 27 26 26 26 25 23 23 22 22 22 21 20 19 18 17 16 16 15 14 14 13 12 12 11 10 9 9 9 8 7 7 6 5 5 5 5 6 5 5 5 5 5 5 5 5 5 6 6 6 7 7 7 8 8 9 9 10 10
2 4 6 6 6 9 10 8 6 6 6 4 8 6 5 11 7 8 19 20 18 18 11 8 16 22 23 23 24 23 24 25 27 28 29 29 30 30 30 28 28 28 26 25 24 23 22 23 23 23 21 20 20 19 18 17 16 15 14 13 13 12 11 11 11 10 10 9 9 8 7 7 7 7 7 7 7 6 6 6 6 5 6 6 7 8 8 8 8 9 9 9 9 9 10 10 10
5 1 5 8 7 10 9 7 6 5 4 3 8 3 2 6 5 7 13 13 16 20 16 12 15 22 24 24 24 24 24 25 26 27 29 31 32 32 31 30 29 28 26 26 25 23 23 24 24 23 23 22 21 20 19 18 18 16 15 15 15 14 13 13 13 12 11 10 10 10 9 9 9 9 9 9 8 8 7 7 7 6 7 8 8 9 9 9 10 10 10 10 10 10 11 11 11
4 2 3 5 6 9 8 4 3 2 2 3 5 2 0 3 4 9 10 7 12 19 20 17 17 21 24 24 25 25 25 25 26 29 31 32 32 32 32 31 29 27 28 27 25 24 24 25 25 24 24 23 23 22 21 20 19 17 16 16 15 15 15 15 15 14 13 12 11 12 11 11 11 11 11 10 10 9 9 8 8 7 8 9 10 10 10 11 11 11 11 11 11 11 11 12 12
3 3 3 5 5 5 7 4 1 1 1 2 4 1 3 1 8 14 11 10 11 16 20 19 19 22 24 25 26 26 26 26 28 31 31 30 29 30 31 29 28 27 27 26 25 25 25 25 25 25 25 25 25 23 22 21 20 19 18 17 16 16 16 16 16 15 14 13 13 13 13 13 13 13 13 12 12 12 11 10 9 9 10 11 12 12 12 12 12 11 11 11 11 11 12 12 12
2 3 2 3 4 3 6 4 1 2 1 3 5 2 5 6 15 14 8 11 13 15 20 20 20 22 24 26 27 27 27 28 29 29 29 28 29 29 30 29 28 26 26 26 26 26 25 25 25 26 27 26 26 25 24 23 22 21 20 19 19 19 18 18 17 16 15 15 14 14 14 14 14 14 14 15 15 14 13 12 11 11 12 13 14 14 14 13 13 12 12 13 13 13 13 13 13
1 1 1 1 0 4 5 4 2 2 2 3 4 3 5 7 13 10 7 10 13 17 20 21 22 23 25 27 28 28 28 29 28 28 28 28 29 29 29 30 29 28 27 27 26 26 26 25 26 27 28 28 26 26 26 25 23 22 21 21 21 20 20 20 19 18 17 17 16 15 15 15 15 15 16 16 17 16 15 14 13 12 13 15 15 15 15 15 14 13 13 14 14 14 14 14 15
2 1 1 2 2 4 7 4 3 3 1 2 5 3 5 8 8 8 12 13 14 19 21 22 24 24 26 28 29 29 29 29 29 29 29 29 30 30 29 30 30 30 29 27 27 27 27 26 26 27 28 29 28 27 26 25 25 24 23 22 22 22 22 22 21 20 19 19 18 18 17 17 17 17 17 17 18 18 17 16 14 14 15 16 16 16 16 16 15 15 15 15 15 16 16 16 17
3 2 1 1 2 2 5 5 4 5 1 1 3 2 4 5 4 4 10 15 17 19 20 22 25 25 27 28 29 30 30 31 32 31 29 29 29 28 28 29 29 30 30 29 28 29 28 27 28 28 29 29 29 28 27 27 26 26 25 24 23 23 23 23 23 22 22 21 21 20 19 19 18 18 17 18 18 18 18 17 16 16 16 17 18 18 17 17 16 16 15 16 17 16 17 18 18
1 1 1 3 4 4 3 4 3 4 2 2 3 2 6 7 6 3 3 7 14 19 21 22 23 25 27 28 29 30 31 32 33 31 29 28 28 27 28 28 28 30 30 31 30 30 29 28 29 29 29 30 29 29 28 28 27 27 26 25 25 25 25 24 23 23 23 23 22 21 20 20 19 18 18 18 18 18 17 17 16 16 17 18 19 20 20 18 18 18 18 18 18 19 18 17 19
5 5 4 3 3 4 5 4 2 3 1 3 3 3 7 11 14 13 8 5 10 18 21 20 22 25 26 28 30 30 31 32 30 28 27 28 28 27 28 28 29 30 30 31 31 31 31 30 31 30 30 30 30 30 29 29 29 29 28 27 26 26 26 25 25 25 24 23 22 21 20 20 20 19 18 18 18 18 18 17 16 16 17 18 20 20 20 19 18 20 21 19 18 19 17 17 21
10 9 6 4 4 4 4 4 3 3 1 4 5 5 7 11 16 14 9 7 9 14 17 19 22 25 26 29 31 31 31 31 27 25 27 30 30 29 28 29 29 30 30 31 32 32 33 33 33 32 31 31 30 31 31 31 31 31 30 29 29 29 28 27 26 26 24 23 22 21 21 21 20 19 19 18 18 18 18 18 17 17 18 18 19 20 20 20 19 19 21 19 17 15 14 18 24
8 6 5 5 5 4 4 3 4 1 2 5 5 6 8 11 13 10 5 6 9 13 16 21 25 27 29 29 31 32 32 30 27 27 29 30 30 29 30 30 31 32 32 32 33 33 33 33 33 33 32 32 32 33 33 32 32 32 31 31 30 30 29 28 27 26 25 23 22 21 21 21 21 20 20 19 19 19 19 19 18 18 19 19 19 19 19 19 19 18 18 18 18 17 14 18 23
7 6 5 4 5 4 5 4 4 1 2 4 2 3 9 10 14 14 7 5 10 16 17 20 25 27 29 30 31 33 32 30 28 29 29 28 28 29 30 32 33 33 33 32 32 32 32 32 33 33 32 33 34 33 33 32 32 31 30 30 29 29 28 28 27 25 24 22 22 22 22 21 21 21 20 20 20 20 20 20 20 20 20 19 18 17 16 16 17 17 18 19 19 18 16 19 21
6 5 5 4 4 3 5 2 3 2 2 4 3 2 8 10 14 16 11 11 16 21 20 21 24 24 27 29 32 34 33 31 29 29 29 27 27 28 30 32 33 33 32 32 33 32 32 32 32 32 33 35 35 34 34 33 31 30 29 28 27 28 27 26 26 24 23 23 22 22 22 21 21 21 20 20 21 21 21 21 21 21 21 19 17 16 16 17 16 16 19 18 17 18 19 20 19
4 5 5 4 3 2 4 2 2 1 1 1 1 2 7 7 10 12 13 17 21 23 23 23 24 24 26 27 29 32 32 32 30 29 28 27 28 28 30 31 32 33 33 34 34 34 34 34 33 32 33 35 35 35 34 33 31 29 28 27 26 27 26 26 26 25 25 25 24 22 22 21 21 21 20 20 20 20 21 21 21 21 21 19 17 16 17 18 17 16 16 15 14 16 18 18 17
3 5 6 3 2 3 4 1 2 2 3 0 1 4 6 5 8 10 8 10 16 21 21 22 26 27 28 27 27 28 29 31 32 30 29 28 29 28 29 30 32 33 34 35 34 33 34 34 33 32 33 34 34 34 34 34 33 31 30 29 29 29 28 28 28 27 27 26 24 23 22 21 21 20 21 21 20 19 19 19 20 20 20 19 18 18 18 18 17 17 16 16 17 17 17 18 16
3 4 6 6 6 4 1 2 4 4 4 3 1 3 5 4 7 9 5 3 8 13 13 20 27 28 28 29 30 29 28 30 32 32 31 30 30 29 29 31 32 34 35 34 34 33 33 34 34 33 33 33 33 34 34 34 34 33 32 33 33 32 31 31 29 27 26 25 23 22 21 21 20 21 21 21 22 21 21 20 20 19 18 18 19 19 19 19 18 17 17 17 18 19 17 18 17
4 5 8 7 7 5 2 2 3 1 3 3 1 3 6 5 5 7 5 4 8 9 8 16 24 25 28 30 32 33 31 30 31 32 32 31 31 29 29 30 31 33 33 32 33 34 35 35 35 34 33 33 33 34 34 35 35 35 34 34 34 33 33 31 28 26 26 24 23 22 21 21 20 20 20 20 21 20 20 20 20 19 18 19 19 19 20 20 19 18 16 15 17 19 18 18 18
3 5 10 8 7 7 5 4 3 3 2 3 1 3 3 5 6 5 3 4 8 9 8 12 19 24 27 30 33 35 34 34 34 34 34 34 34 33 32 31 31 32 31 31 32 32 34 36 36 35 34 34 34 34 34 35 36 36 36 35 35 34 33 30 27 26 26 25 24 23 23 22 21 20 20 20 20 19 19 19 19 20 19 19 19 19 19 18 18 18 17 17 19 19 19 20 19
5 5 8 7 6 5 4 5 4 2 2 4 3 3 2 6 6 3 1 4 8 9 9 10 17 24 28 29 32 34 35 36 37 38 38 38 38 38 37 35 33 32 31 31 31 31 31 33 35 36 36 36 36 35 35 35 36 37 37 36 36 35 33 31 29 29 28 27 26 25 24 24 22 22 21 19 19 19 19 19 20 20 19 18 18 19 19 17 19 20 19 20 19 17 20 21 18
4 5 7 4 4 4 3 4 3 1 1 6 5 4 4 5 5 2 1 4 6 7 8 9 15 22 25 27 30 31 32 33 34 36 37 37 37 37 37 37 37 35 34 33 32 31 31 31 32 34 35 36 36 36 36 36 36 37 37 37 37 36 34 32 31 31 31 30 29 27 26 25 24 23 21 20 19 19 20 20 20 20 19 18 18 21 20 17 18 18 16 16 17 17 20 19 16
7 7 6 6 5 4 3 2 3 2 4 6 4 6 4 4 5 5 4 5 6 7 7 8 13 18 20 23 25 24 24 24 24 24 25 26 28 31 33 36 37 37 37 35 34 33 32 32 32 32 33 34 35 37 37 37 36 37 37 37 37 36 34 34 33 33 33 32 31 29 28 27 25 23 22 21 20 20 20 20 19 20 19 19 19 20 18 14 15 18 17 17 18 19 18 14 13
8 5 4 4 1 3 3 2 2 2 6 5 3 2 4 5 6 4 5 5 5 7 7 7 11 17 21 21 20 16 14 15 16 16 16 18 20 23 27 31 33 35 38 37 35 33 33 32 32 32 32 32 33 34 36 37 37 37 37 37 37 36 35 35 35 34 34 33 31 30 29 28 25 24 22 22 21 21 21 20 20 19 19 20 19 16 15 16 18 21 20 18 18 19 15 13 15
5 4 5 4 1 1 1 2 1 4 5 3 2 1 3 7 6 6 8 8 7 9 12 13 15 20 23 22 20 17 15 17 18 19 20 21 19 19 21 24 27 29 34 36 36 34 33 33 33 33 32 31 31 32 33 35 36 37 38 37 37 36 36 36 35 35 35 33 32 31 30 28 26 24 23 21 20 20 20 20 19 19 19 20 16 14 18 20 17 18 19 18 20 20 16 17 21
7 6 6 6 4 4 6 4 1 4 4 2 2 1 3 5 4 9 11 11 14 16 18 20 21 23 26 26 24 22 22 23 24 25 26 24 22 19 19 19 21 23 26 30 34 35 34 33 33 33 32 31 31 32 32 33 34 36 37 37 37 36 36 36 35 35 34 33 32 31 29 27 25 24 22 21 19 19 19 20 19 19 19 18 15 16 19 18 16 18 21 22 22 20 18 20 24
6 5 5 5 5 6 7 5 3 4 3 2 2 2 4 3 3 8 11 14 17 17 17 19 21 24 27 28 27 25 26 26 24 24 23 22 21 20 18 17 17 19 21 24 29 32 34 34 34 34 33 31 32 32 32 32 33 34 35 35 35 36 36 35 34 34 33 32 32 30 28 26 25 23 22 20 19 19 20 20 20 20 19 17 17 16 17 18 20 22 23 22 21 19 20 23 25
3 3 5 4 5 4 3 3 4 3 2 3 2 3 4 4 6 9 8 10 14 17 19 20 23 26 25 26 26 23 23 21 20 19 18 17 18 18 17 15 14 15 17 20 23 26 29 31 32 33 33 31 31 32 32 32 32 32 33 33 34 34 35 34 33 33 32 31 30 29 27 25 24 23 21 21 20 20 21 21 21 20 18 17 17 16 18 22 21 20 21 20 19 20 21 22 22
2 3 6 4 2 6 4 1 1 4 3 4 2 5 5 3 8 10 5 5 9 12 15 17 22 23 20 22 24 22 20 20 20 20 17 14 15 15 14 13 12 12 13 16 18 20 23 25 27 29 30 31 32 32 32 31 31 32 32 33 33 33 33 33 32 31 30 29 28 27 25 24 23 23 22 22 21 21 22 21 21 20 18 18 18 18 21 22 19 18 18 18 18 19 18 18 18
5 5 8 3 3 3 3 1 2 2 4 4 1 5 5 2 6 6 3 7 11 11 8 8 13 15 17 21 21 19 17 18 19 18 16 14 13 13 13 12 12 12 12 14 15 18 21 23 25 27 28 29 30 31 31 31 31 32 32 33 33 32 32 31 31 29 28 27 26 25 24 24 24 23 23 22 22 22 22 21 20 20 19 19 19 19 21 20 17 17 16 15 15 16 16 16 17
4 6 7 5 3 3 2 3 3 3 4 4 4 4 4 6 6 3 2 8 11 11 8 6 9 13 15 16 14 12 12 13 13 13 13 13 12 13 13 13 13 13 14 15 16 18 20 22 24 26 27 28 29 30 31 31 32 32 32 32 32 31 31 30 29 28 27 26 26 25 24 24 24 23 23 23 23 23 22 21 20 20 20 19 19 20 20 18 16 15 14 14 14 14 15 16 16
4 3 5 2 2 4 4 3 4 4 4 4 3 4 4 6 7 5 7 9 8 9 8 6 10 12 10 10 9 9 11 11 10 9 10 12 12 13 13 13 14 14 15 16 17 18 19 21 22 24 26 27 28 29 30 31 31 31 31 31 31 30 29 29 28 27 27 26 25 24 24 24 23 23 23 23 23 22 22 21 20 20 19 19 19 20 18 16 15 14 14 14 14 15 15 16 16
3 4 5 3 1 2 2 1 2 4 4 3 1 4 6 5 5 9 11 11 9 10 10 8 10 9 6 7 8 10 10 10 10 9 10 12 13 12 12 12 13 13 14 14 15 16 17 19 21 23 25 26 28 28 29 30 30 29 29 29 28 28 27 27 27 27 27 26 24 24 24 24 23 23 23 23 23 22 22 21 20 19 19 19 20 18 16 15 15 14 14 14 15 15 15 15 16
7 5 5 6 4 4 3 4 2 3 3 4 3 4 8 5 5 9 11 10 11 12 10 8 9 7 4 5 8 9 9 8 8 8 9 12 13 12 10 10 11 12 12 12 13 13 13 15 17 20 22 25 27 27 28 28 27 27 27 26 26 26 25 25 25 25 25 25 24 23 22 23 23 23 23 23 23 22 20 19 19 18 19 19 18 16 16 15 15 14 14 15 15 15 15 15 15
Wind_Direction
291 308 333 338 340 337 337 355 13 4 62 90 314 131 236 240 211 157 129 134 136 174 169 148 152 156 158 160 162 139 123 153 164 140 170 162 143 148 151 141 133 128 136 145 155 155 153 144 140 140 138 145 146 138 125 123 122 125 125 116 113 111 109 111 109 102 99 99 99 101 96 94 93 91 91 89 87 88 87 86 86 85 83 83 83 84 88 88 84 82 83 85 88 88 88 88 88
287 299 329 334 338 335 318 17 62 335 39 72 276 167 247 297 143 174 176 202 183 148 141 139 148 151 133 130 125 102 117 159 163 141 139 146 145 148 147 139 132 130 143 148 153 156 158 148 140 140 142 147 145 141 129 122 125 133 125 114 116 113 108 108 107 101 94 93 97 100 97 94 95 94 93 93 93 93 92 90 88 86 85 85 85 85 89 91 88 85 84 84 87 88 88 88 87
286 297 330 332 332 352 23 31 70 78 59 181 272 243 247 168 181 206 206 187 133 128 128 133 137 124 112 116 112 109 170 184 156 138 140 150 151 149 146 140 136 140 152 146 153 157 155 147 139 141 147 150 148 147 131 121 120 122 116 113 120 111 102 102 100 93 88 91 94 96 93 92 94 95 95 95 95 97 96 91 88 88 87 87 86 85 87 90 91 90 86 82 85 87 88 88 85
284 298 333 330 326 4 63 45 115 117 90 215 277 272 238 177 195 227 176 137 128 123 123 130 116 108 109 111 131 146 178 182 161 149 150 156 154 150 146 141 143 149 152 147 152 154 155 150 142 146 151 154 155 148 131 124 121 119 116 115 113 104 100 98 95 91 91 98 97 96 95 93 95 95 95 98 99 98 95 89 87 87 86 86 85 85 84 88 90 88 85 83 87 88 87 87 84
283 309 332 305 313 34 88 71 111 102 223 191 192 271 237 199 192 182 150 141 134 114 132 136 101 117 114 117 147 199 179 169 165 160 155 154 154 153 146 142 148 150 152 146 147 153 158 156 147 149 153 157 156 148 133 126 125 124 126 122 112 105 108 106 99 95 101 104 101 101 99 96 96 97 97 99 98 95 92 89 86 85 84 84 83 84 85 86 87 85 84 85 87 88 88 86 85
282 325 353 333 73 94 115 107 154 191 234 174 161 255 226 209 179 156 155 158 165 106 156 156 143 139 112 103 119 144 156 169 173 164 154 153 155 155 146 145 151 151 152 143 146 154 157 156 151 151 155 158 154 148 139 131 129 129 132 128 119 116 117 114 107 107 111 105 103 107 103 98 98 98 99 99 97 95 94 92 90 88 87 87 86 86 87 88 89 88 87 87 86 88 88 88 88
294 302 342 79 76 45 110 152 198 232 237 175 174 233 206 188 168 154 158 175 206 194 182 181 156 138 110 109 114 134 146 188 177 161 154 154 156 156 148 150 155 153 150 144 145 149 152 156 156 157 159 158 154 151 146 140 135 132 135 133 125 124 124 123 115 114 118 110 109 113 106 101 101 101 103 102 101 100 98 96 94 93 92 92 92 89 90 91 93 92 91 90 89 89 89 90 91
314 281 8 102 56 27 92 154 221 213 231 217 221 242 199 171 165 159 167 178 171 191 188 169 157 129 130 139 138 153 145 165 167 159 156 156 158 156 152 155 158 155 149 146 147 145 151 159 163 163 160 160 156 155 153 147 143 136 135 135 131 129 129 133 128 118 119 117 115 114 109 106 106 105 108 108 105 104 102 100 97 96 95 95 94 93 93 94 94 94 94 92 90 89 89 89 88
317 263 58 89 107 41 35 295 264 239 254 261 256 254 199 169 166 162 168 181 171 179 168 161 167 199 158 145 146 158 145 151 159 161 159 159 162 157 154 158 160 159 149 145 148 146 152 163 169 164 161 162 158 159 158 151 150 140 131 133 133 127 124 133 136 121 110 112 110 108 111 111 109 111 114 113 110 108 105 102 99 97 97 95 95 93 93 93 94 94 92 90 88 87 86 85 82
321 346 121 89 106 54 329 285 258 263 252 258 264 233 184 171 170 168 167 173 173 167 161 160 156 151 155 149 150 158 155 156 163 165 162 162 164 159 156 160 166 167 152 147 149 150 155 165 171 167 164 164 161 161 160 157 155 143 132 131 128 121 119 126 130 117 109 109 109 109 112 114 113 116 118 116 114 112 109 107 104 100 99 97 95 93 92 91 90 90 88 87 85 84 82 78 73
336 20 105 89 78 135 242 250 263 268 266 286 281 200 176 173 169 172 169 157 171 165 164 169 142 143 143 151 161 165 163 164 171 168 162 166 167 161 160 164 171 175 163 154 152 155 160 167 172 170 166 166 165 162 163 165 157 144 135 130 126 122 121 123 121 114 115 114 115 119 117 118 120 122 122 121 120 117 116 112 108 104 101 99 96 94 91 89 87 85 82 81 80 78 76 71 65
22 12 69 100 135 188 204 232 269 284 300 314 232 180 175 175 169 178 173 161 171 169 176 177 167 154 128 157 175 173 171 170 176 174 166 170 170 163 166 171 172 174 171 165 159 160 165 170 173 170 167 170 170 166 170 170 154 143 136 133 129 126 125 124 122 118 121 121 122 126 126 126 127 128 126 125 125 122 119 114 111 107 103 99 96 93 89 86 83 80 77 75 73 72 69 64 60
107 127 87 125 180 173 165 212 275 316 317 272 187 174 176 177 180 187 169 166 175 169 187 182 173 166 135 174 185 182 178 173 176 180 174 172 174 167 172 178 176 177 173 172 167 164 169 172 174 172 166 172 178 174 173 169 153 144 140 137 134 130 130 126 124 124 124 125 123 123 127 132 133 131 128 130 130 126 121 117 115 109 105 100 94 92 87 84 80 77 75 72 70 67 63 59 54
92 135 117 153 90 111 159 217 279 316 285 259 177 168 175 182 192 191 170 167 187 179 183 185 179 173 164 177 196 189 178 174 177 181 179 176 178 174 177 183 182 181 177 177 174 170 172 174 175 173 171 174 180 178 173 169 157 148 146 142 139 134 133 129 127 128 127 126 124 122 126 132 136 133 131 136 136 132 127 123 118 113 107 101 95 90 86 83 78 75 72 70 68 64 61 55 50
101 116 97 118 58 357 194 249 214 147 250 245 170 172 173 182 190 194 189 182 193 190 175 180 183 181 195 187 200 192 178 174 178 180 182 178 179 179 181 186 187 186 182 180 178 176 176 177 178 174 176 178 177 173 168 165 158 151 149 145 144 141 136 134 133 133 131 128 127 127 129 134 138 139 139 141 141 138 135 129 124 118 111 103 95 89 84 81 75 71 67 65 64 61 58 52 47
94 105 75 95 149 249 203 209 134 123 254 224 165 172 169 189 190 193 205 194 192 192 181 179 186 194 216 190 188 188 181 175 177 181 184 179 179 181 183 187 190 189 187 185 182 180 179 181 181 177 178 182 179 171 165 162 158 155 153 151 150 146 142 140 140 140 137 135 132 133 135 138 142 145 145 144 144 144 142 138 133 126 115 105 96 88 82 77 72 65 58 54 51 50 49 45 41
84 92 83 90 182 208 200 193 180 169 261 243 180 176 168 191 197 199 207 199 203 196 192 191 195 203 220 200 187 184 184 177 178 182 184 182 180 181 184 188 192 192 191 189 185 183 182 183 182 181 180 182 184 176 171 165 162 160 156 155 154 151 147 145 147 147 145 142 139 140 140 143 147 149 149 147 147 148 148 145 140 134 124 112 98 91 82 73 66 55 46 39 35 35 34 33 30
84 97 116 192 182 190 190 187 197 176 286 261 206 189 176 183 190 187 189 197 209 199 198 203 202 208 219 222 219 190 187 181 181 185 185 185 183 185 187 190 193 194 194 191 189 187 185 184 183 182 181 183 185 182 177 170 167 164 158 158 157 155 152 149 151 151 151 148 146 148 148 149 151 152 152 151 152 151 151 151 145 142 140 128 109 95 84 71 57 44 34 24 20 18 19 21 17
87 102 137 206 191 215 214 198 201 196 314 268 231 212 197 199 184 178 185 191 189 191 205 211 210 213 219 228 232 198 190 186 185 189 189 189 189 190 191 192 194 194 196 195 192 190 187 187 185 183 182 184 187 185 181 176 172 168 164 163 163 162 158 152 152 152 155 154 154 155 154 156 156 157 158 157 157 155 155 153 149 150 152 151 140 120 88 62 46 32 23 14 8 2 1 4 6
101 114 169 227 226 264 294 299 264 274 289 278 252 220 214 218 187 180 188 173 183 202 207 208 213 214 217 226 228 199 192 190 190 193 193 194 195 195 196 196 196 196 198 198 196 194 191 189 188 185 183 184 187 187 185 181 178 175 173 172 173 173 170 164 159 156 157 159 160 162 162 162 162 163 163 163 163 162 164 162 159 158 160 168 179 185 190 17 17 10 6 3 358 353 348 347 350
120 138 177 222 342 287 323 347 327 311 297 283 259 194 214 219 195 186 173 147 222 228 215 214 218 214 211 218 219 199 193 192 193 197 198 198 199 200 202 203 201 200 198 199 200 199 195 193 192 190 187 185 187 189 188 187 185 184 184 184 185 185 184 181 175 169 164 164 165 167 169 169 170 171 170 169 169 169 171 174 174 172 174 180 197 217 243 283 323 337 341 342 342 339 336 336 336
129 178 189 150 21 265 315 347 339 327 313 281 236 183 211 202 197 195 179 177 224 228 223 222 224 221 216 215 211 199 195 196 197 200 203 203 202 203 205 206 205 203 201 203 203 203 201 197 195 195 193 189 188 190 191 193 193 193 194 196 198 197 195 193 192 189 181 177 174 171 173 177 182 181 180 178 176 177 178 186 192 193 196 201 219 236 261 278 293 307 314 316 318 320 320 322 323
183 237 208 194 301 274 313 332 325 324 304 264 240 230 208 182 200 204 196 210 221 229 233 226 225 225 222 218 210 202 200 202 203 204 206 205 206 206 207 208 208 207 206 207 206 206 205 202 200 199 199 195 191 191 193 196 198 200 203 205 207 207 205 201 198 198 199 197 190 184 183 189 197 199 198 194 190 188 188 198 210 218 220 229 246 255 269 277 285 290 295 299 301 305 305 308 311
172 197 204 211 282 295 320 331 326 323 280 260 255 243 204 186 198 205 212 221 221 237 248 231 223 221 219 216 214 213 212 212 212 212 210 210 210 210 210 211 212 212 212 210 209 208 208 207 206 204 203 201 198 197 197 198 200 203 207 210 211 212 211 205 202 203 205 208 207 205 204 203 207 214 216 216 213 209 205 210 223 240 248 252 259 265 272 276 282 282 284 289 291 295 295 298 302
153 174 196 228 297 311 332 342 349 340 295 269 240 229 211 200 195 209 226 226 221 231 253 237 220 215 214 214 216 218 217 217 217 215 214 215 215 214 215 215 215 215 215 213 211 211 210 211 212 211 210 207 206 206 205 203 203 206 209 212 214 216 213 208 208 210 210 213 216 219 221 222 225 227 229 233 233 232 227 225 235 246 260 268 268 270 272 276 278 278 281 283 285 290 292 296 300
175 177 210 236 290 323 336 342 3 353 315 255 215 229 217 200 200 242 242 235 229 230 243 242 218 213 213 213 217 219 219 219 218 217 218 218 218 218 218 218 218 217 217 215 215 214 212 213 215 217 216 214 213 214 214 212 212 212 214 216 218 220 218 217 218 217 217 217 219 225 228 231 237 240 242 242 242 245 244 242 248 253 264 271 273 274 275 276 276 277 279 281 284 288 292 296 300
147 144 237 236 280 318 324 328 341 336 326 230 206 232 218 182 181 246 246 237 231 229 234 235 220 216 216 215 218 220 222 223 222 220 219 220 220 221 222 221 221 221 220 219 218 217 216 217 217 219 220 220 219 219 220 219 219 218 219 221 223 225 224 225 226 225 227 226 225 228 231 233 238 246 251 253 252 253 253 252 255 262 269 270 272 274 274 274 274 276 278 281 284 287 291 294 297
131 56 228 251 292 302 307 339 349 344 360 226 197 192 245 134 183 239 239 227 228 225 226 228 221 218 216 217 218 219 223 225 224 222 221 223 224 224 225 224 223 223 223 222 221 221 221 221 220 221 222 223 223 223 223 223 223 222 222 224 226 228 229 231 232 232 234 236 236 236 237 238 239 244 252 257 258 258 259 258 258 265 269 268 270 271 272 275 277 280 280 282 284 287 292 295 297
93 64 178 283 325 305 308 354 72 108 50 197 148 179 274 179 230 242 241 235 233 222 222 224 221 218 216 217 219 219 223 223 222 225 227 229 231 230 230 230 228 226 226 225 225 225 226 225 223 223 224 225 227 226 227 227 226 225 225 227 228 230 232 234 236 238 239 240 241 241 242 242 242 243 248 253 256 258 260 259 261 265 266 265 265 266 269 273 277 281 282 283 286 290 295 296 297
75 61 139 309 345 315 325 3 63 127 188 183 139 232 269 243 237 238 237 231 227 220 220 222 221 220 218 218 220 221 222 222 224 229 233 233 234 235 236 237 234 232 230 228 228 228 228 228 227 226 226 228 229 229 229 229 229 228 228 228 231 233 236 238 240 241 242 242 243 244 244 244 244 244 247 251 252 255 257 258 261 263 265 265 264 264 264 266 270 276 280 282 286 290 293 295 297
117 77 109 72 194 265 316 355 46 109 225 187 149 234 265 260 246 230 225 227 221 222 222 222 223 222 222 221 221 224 224 226 230 232 234 236 236 237 239 239 239 237 234 231 231 230 230 230 230 229 229 230 231 232 231 231 232 232 233 232 233 236 239 241 243 244 244 245 246 246 248 248 248 248 249 251 252 254 255 256 259 261 264 264 264 265 264 264 267 270 274 279 285 289 291 293 297
52 147 266 15 173 256 316 320 185 163 258 160 150 230 267 274 262 219 223 229 224 226 225 224 226 225 225 225 225 228 229 230 232 232 233 236 236 238 239 239 240 240 238 236 234 233 233 232 233 232 231 232 233 234 234 235 236 236 237 237 237 239 241 243 244 245 246 246 247 247 249 252 251 250 250 251 252 253 255 256 257 259 261 262 263 264 265 267 268 269 272 277 282 287 291 294 296
11 116 195 317 169 233 319 310 211 169 148 179 166 216 268 279 276 204 223 228 224 226 228 227 228 229 228 228 230 232 233 232 232 233 234 236 237 239 240 240 241 241 241 241 239 237 235 233 233 233 232 233 235 236 237 237 238 238 240 240 241 241 242 243 244 245 244 244 246 247 249 251 251 249 248 250 251 253 255 258 258 258 258 260 261 262 264 267 269 270 272 276 282 286 290 294 295
12 79 201 230 193 197 233 279 264 155 156 236 173 194 251 269 277 262 248 234 226 227 230 230 230 231 231 231 233 234 235 235 236 236 236 238 240 240 240 241 241 242 242 242 242 241 239 236 235 235 234 234 235 237 238 238 239 239 240 241 241 241 241 242 242 241 241 241 243 245 247 248 249 248 247 249 251 253 256 259 261 262 261 260 259 260 261 262 266 268 268 272 276 278 281 287 290
173 186 201 228 214 217 215 238 261 130 159 250 187 213 254 268 272 267 273 266 235 235 237 234 234 236 235 234 235 237 238 240 241 241 241 241 241 242 241 241 241 241 242 241 242 242 241 240 238 237 237 235 235 236 237 238 239 238 238 239 239 239 239 238 239 238 239 239 240 241 243 245 246 248 249 252 256 259 262 264 266 269 268 267 267 267 266 267 269 272 276 279 276 274 276 284 285
179 182 178 169 190 234 231 242 271 140 140 268 228 230 243 251 264 264 260 251 241 247 245 237 238 239 238 237 238 239 241 244 247 245 244 243 242 243 243 243 243 242 242 241 241 241 241 240 240 239 237 237 236 236 236 236 236 235 235 235 235 235 235 236 237 237 239 238 239 240 241 243 246 248 251 255 260 263 267 270 271 272 271 270 272 273 275 275 274 275 282 288 285 276 279 288 286
159 156 172 178 185 244 243 245 299 121 152 265 242 241 253 251 264 267 243 239 239 242 243 239 239 239 239 240 239 241 244 247 250 247 245 245 244 245 244 244 244 242 242 241 240 240 240 240 239 238 237 237 237 236 236 235 233 232 232 232 233 234 236 237 237 238 239 240 241 243 243 246 248 251 253 256 261 264 267 271 273 273 271 269 271 274 276 274 272 274 277 280 282 280 279 285 285
144 151 169 193 194 240 246 229 307 10 160 266 275 250 263 262 267 267 240 218 241 239 238 242 245 243 243 244 243 244 246 249 250 249 248 247 246 245 245 246 245 244 243 241 241 239 239 239 238 237 236 236 237 236 237 235 234 234 234 235 237 239 240 240 241 241 243 246 247 249 250 252 254 257 259 260 262 264 266 268 270 272 272 270 270 277 282 276 268 267 270 272 276 280 279 279 282
157 155 148 196 205 242 261 254 346 18 172 273 342 283 263 261 262 264 242 226 247 250 246 251 255 253 250 249 249 248 248 250 250 249 249 247 246 245 245 246 246 246 245 244 243 241 239 238 237 235 235 235 235 236 237 236 236 237 239 242 244 247 248 248 250 250 250 251 251 252 253 254 255 257 259 260 261 262 263 264 266 270 273 275 275 279 284 284 276 266 266 269 271 275 276 277 282
162 154 149 203 211 186 233 254 344 37 125 262 352 308 272 267 268 270 248 235 248 254 251 256 257 258 259 258 256 254 253 253 252 252 251 249 247 246 244 245 246 246 245 244 243 241 239 237 236 235 234 235 235 235 236 236 238 240 243 247 250 253 254 253 253 251 249 248 248 248 249 250 252 254 257 258 259 260 262 262 264 267 271 276 276 273 273 278 283 282 282 284 281 277 280 284 287
189 176 162 171 186 194 213 272 312 349 16 358 58 320 283 258 261 268 258 239 249 251 246 249 251 252 257 259 259 258 255 253 254 254 253 251 250 248 248 247 247 247 246 245 244 242 241 239 237 236 235 236 235 235 236 237 238 239 241 245 247 249 249 248 246 243 241 242 243 243 245 247 251 254 257 258 259 261 262 263 264 264 265 268 270 271 271 271 275 278 283 288 286 282 282 283 282
219 205 173 166 179 198 222 17 25 27 344 305 114 296 279 274 256 254 270 284 260 253 240 241 246 248 250 252 255 257 255 252 252 252 251 252 252 251 252 252 251 250 248 246 246 245 244 243 240 239 238 238 237 236 235 236 237 238 239 240 241 243 243 242 240 239 239 241 242 243 245 247 249 253 256 258 260 262 264 266 268 267 267 267 268 270 272 273 274 272 269 271 280 284 281 280 280
220 213 176 170 165 162 165 86 74 128 269 292 117 206 264 305 274 251 277 298 272 267 256 246 246 247 246 249 252 254 254 252 250 250 250 251 250 250 251 253 253 252 251 249 247 246 245 244 243 241 240 240 239 237 235 235 236 237 238 239 241 243 244 244 243 244 245 246 247 247 247 247 248 251 254 257 259 261 263 264 267 267 266 266 265 265 265 266 269 272 270 265 270 275 273 274 276
227 208 166 171 166 171 183 146 163 219 261 311 32 167 254 285 258 249 280 293 282 275 269 259 250 247 245 245 248 250 252 252 251 251 252 254 254 255 256 257 256 254 255 253 249 247 246 245 245 243 242 241 241 239 237 237 237 238 238 239 241 243 245 246 247 249 251 251 250 249 249 250 250 251 253 256 257 258 259 260 261 260 259 260 262 264 263 263 267 270 272 269 266 271 271 267 267
235 194 150 166 165 168 164 143 198 266 357 289 268 144 233 267 260 273 289 256 267 268 263 258 250 246 243 244 247 249 251 254 257 258 259 261 261 263 263 262 259 257 256 255 252 250 249 247 247 245 244 243 242 241 240 239 239 240 241 242 243 244 246 247 248 250 250 251 251 250 250 251 252 253 254 256 257 258 259 259 259 257 256 259 262 264 261 261 266 264 263 264 264 270 275 268 261
206 142 101 85 81 82 102 140 175 58 332 242 218 175 226 269 261 248 260 242 245 259 264 256 251 248 247 248 249 253 257 259 262 265 265 265 265 265 265 262 259 256 255 255 253 251 249 248 247 246 245 244 244 243 241 241 241 242 243 244 245 246 248 248 249 249 249 250 251 250 250 251 253 256 257 258 258 258 258 258 258 257 258 258 259 264 260 249 255 263 267 267 265 269 274 268 256
126 109 80 63 52 52 61 85 95 92 266 256 219 184 197 276 266 213 212 225 209 223 252 264 263 259 255 255 257 260 262 261 262 265 268 269 268 265 263 260 256 253 252 252 252 250 248 248 247 247 247 247 246 245 244 243 242 243 244 245 246 247 248 248 248 248 249 250 250 251 253 255 258 261 260 260 258 257 257 257 258 258 259 258 255 260 265 259 262 271 272 267 262 265 271 269 261
116 111 112 98 32 43 38 9 72 195 251 283 282 174 164 237 260 237 246 257 219 204 221 245 259 259 258 259 264 263 256 255 257 262 273 278 277 271 264 260 256 251 248 247 248 248 247 247 247 248 248 248 248 248 247 246 245 244 245 246 246 247 247 248 248 248 249 250 251 254 257 260 262 262 261 259 257 257 259 259 259 258 259 261 258 258 266 267 261 258 260 261 261 261 267 275 275
126 127 133 132 139 94 219 237 176 229 244 255 249 164 193 237 250 256 266 271 250 226 223 231 242 254 259 263 267 266 260 262 264 270 280 284 284 284 276 266 259 252 246 244 245 246 247 247 247 249 249 249 249 249 249 248 247 246 246 246 247 247 248 248 248 249 250 251 253 255 258 261 261 261 260 258 256 257 258 258 256 256 258 260 259 255 256 254 248 247 253 256 256 258 262 269 270
160 154 157 161 156 174 209 212 208 244 248 248 227 203 257 271 259 237 237 240 241 237 237 242 249 258 265 271 275 277 276 274 273 277 282 281 278 283 285 277 264 254 246 242 243 245 247 247 247 249 250 250 249 248 248 248 248 247 247 248 248 249 249 249 249 250 252 253 255 257 260 261 261 260 259 257 255 253 252 251 250 250 252 253 252 251 252 247 240 244 249 249 248 252 257 258 259
176 150 140 169 179 182 197 195 198 223 241 279 267 213 203 208 251 238 235 249 255 253 252 254 257 262 268 276 282 284 282 279 279 282 283 276 269 271 280 282 270 256 247 242 241 243 245 246 246 248 250 250 249 247 246 247 247 247 248 248 249 249 250 251 252 253 254 256 258 259 261 261 259 258 257 256 253 250 247 246 248 249 250 250 248 247 249 247 243 243 245 245 243 245 250 251 254
210 122 128 202 205 145 132 181 172 151 204 261 229 226 215 204 275 270 248 264 272 264 260 259 258 260 266 274 279 280 281 281 282 285 287 276 265 265 270 274 271 259 247 242 240 240 242 243 245 246 248 249 248 247 245 246 247 247 247 247 248 249 250 252 253 254 255 256 258 259 259 258 256 255 254 253 250 247 246 245 247 249 249 250 247 240 241 246 248 247 244 241 240 245 252 254 256
156 145 180 217 160 108 104 239 33 88 213 250 198 242 284 314 286 278 251 268 277 258 252 253 255 258 263 267 270 274 280 285 284 284 285 278 269 269 271 271 273 268 256 248 242 240 240 240 241 242 243 244 244 244 244 245 245 245 245 246 247 249 251 252 254 255 256 258 258 258 256 254 252 251 250 250 247 245 246 246 248 249 249 248 245 239 240 244 247 248 246 245 248 253 258 259 260
138 187 192 155 73 94 111 190 352 67 226 269 241 241 273 257 262 292 280 250 260 258 255 259 262 260 259 262 266 276 286 288 284 280 277 276 272 271 274 275 275 273 267 258 250 246 243 241 241 241 241 241 242 243 243 243 244 243 244 245 247 250 251 253 255 256 256 256 255 253 251 249 248 248 248 247 246 245 246 248 249 250 250 247 242 239 244 246 243 244 247 249 251 254 255 257 260
141 180 177 145 155 196 146 156 186 178 219 274 310 287 261 212 225 306 290 229 239 261 273 274 263 256 258 268 276 287 298 297 286 273 266 269 269 269 273 278 279 277 273 267 258 252 248 245 244 242 242 242 242 242 242 242 242 242 244 245 247 249 251 253 254 254 253 251 249 248 247 246 245 245 245 244 244 246 248 250 250 250 249 246 242 240 243 243 241 242 245 247 250 253 256 259 264
52 122 165 152 136 176 169 159 168 166 198 246 309 318 271 220 203 198 230 237 233 253 271 261 250 254 272 294 301 308 318 321 307 278 258 257 260 266 272 277 282 282 278 272 264 258 253 249 246 244 243 242 242 242 242 241 242 243 244 245 246 248 249 250 250 250 249 247 246 244 242 242 242 241 241 241 243 246 247 248 249 248 246 242 240 239 238 238 238 239 239 243 250 255 260 265 270
114 137 173 181 95 128 154 146 134 137 172 202 256 287 265 246 196 186 212 238 237 242 254 244 241 259 296 313 316 324 329 330 320 294 267 255 253 257 267 279 285 283 280 275 268 263 259 254 250 247 244 242 242 242 242 243 243 243 245 245 246 247 247 248 247 246 245 243 240 239 238 238 237 237 238 239 241 243 244 245 245 242 238 236 235 234 232 232 233 235 237 244 253 258 264 270 272
165 164 180 177 144 118 154 213 211 116 158 176 165 261 267 251 199 191 201 217 226 237 247 232 225 243 272 302 316 328 334 331 320 300 276 259 250 250 264 280 283 281 280 278 274 271 266 260 254 249 246 244 243 243 243 243 244 244 246 245 245 245 245 245 244 242 240 237 234 234 234 234 233 234 235 237 238 239 241 241 237 233 230 229 229 228 229 230 232 238 246 252 258 263 268 270 271